Terminal Aerodrome Forecast
Issued by NWS Charleston, WV

Home | Current Version | Previous Version | Text Only | Print | Product List | Glossary On
Versions: 1 2 3 4 5 6 7 8 9 10 11 12 13 14 15 16 17 18 19 20 21 22 23 24 25 26 27 28 29 30 31 32 33 34 35 36 37 38 39 40 41 42 43 44 45 46 47 48 49 50
218
FTUS41 KRLX 211450 AAA
TAFCRW
TAF AMD
KCRW 211450Z 2115/2212 25004KT P6SM SCT015 BKN025
      TEMPO 2115/2117 BKN015
     FM211900 30004KT P6SM BKN035
     FM220400 24003KT P6SM SCT035=

USA.gov is the U.S. government's official web portal to all federal, state and local government web resources and services.